[[{"header":{"parameterUnit":"m.s-1","parameterCategory":1,"la1":30.2991,"la2":30.254,"lo1":-89.0895,"lo2":-89.0444,"dy":0.0017,"dx":0.0017,"nx":28,"ny":28,"refTime":"2025-08-22T03:00:00:Z","depth":0,"parameterNumber":2,"parameterNumberName":"U-component_of_WINDS"},"data":[0,0,0,0,0,0,0,0,0,0,0,0,0,0,0,0,0,0,0,0,0,0,0,0,0,0,0,0,0,0,0,0,0,0,0,0,0,0,0,0,0,0,0,0,0,0,0,0,0,0,0,0,0,0,0,0,0,0,-0.2052,-0.2052,0,-0.2039,-0.2039,-0.2039,-0.203,-0.203,-0.203,-0.2029,-0.2015,-0.2015,-0.2014,0,0,0,0,0,0,0,0,0,0,0,0,0,-0.2067,-0.2067,-0.2053,-0.2052,-0.2052,-0.2039,-0.2039,-0.2039,-0.203,-0.203,-0.203,-0.2029,-0.2015,-0.2015,-0.2014,0,0,0,0,0,0,0,0,0,0,0,0,0,-0.2058,-0.2067,-0.2053,-0.2046,-0.2045,-0.2039,-0.2039,-0.2039,-0.203,-0.203,-0.203,-0.2029,-0.2015,-0.2015,-0.2014,-0.2014,0,0,-0.2013,-0.2013,0,0,0,0,0,0,0,0,-0.2059,-0.2058,-0.2047,-0.2046,-0.2046,-0.2036,-0.2039,-0.203,-0.203,-0.2036,-0.2029,-0.2029,-0.2022,-0.2021,-0.2019,-0.2013,-0.2012,-0.2013,-0.2013,-0.2012,-0.2012,0,0,0,0,0,0,0,-0.2059,-0.2058,-0.2047,-0.2047,-0.2046,-0.2043,-0.2042,-0.2037,-0.203,-0.2035,-0.2034,-0.2033,-0.2022,-0.2019,-0.2018,-0.2012,-0.2013,-0.2012,-0.2012,-0.2012,-0.2003,-0.2003,0,0,0,0,0,0,-0.2061,-0.2059,-0.2048,-0.2047,-0.2052,-0.2043,-0.2041,-0.2039,-0.203,-0.2028,-0.2033,-0.2033,-0.202,-0.2019,-0.2018,-0.2015,-0.2012,-0.2012,-0.2012,-0.2003,-0.2003,-0.2003,0,0,0,0,0,0,-0.2062,-0.206,-0.2048,-0.2053,-0.2051,-0.2043,-0.204,-0.2039,-0.2037,-0.2028,-0.2027,-0.2032,-0.202,-0.2018,-0.2014,-0.2015,-0.2012,-0.2011,-0.2003,-0.2003,-0.2003,-0.201,0,0,0,0,0,0,-0.2062,-0.2061,-0.2061,-0.2053,-0.2051,-0.2046,-0.2041,-0.2039,-0.2036,-0.2035,-0.2027,-0.2025,-0.202,-0.2015,-0.2014,-0.2014,-0.2011,-0.2003,-0.2003,-0.2003,-0.201,-0.2011,-0.2011,0,0,0,0,0,-0.2063,-0.2064,-0.2061,-0.206,-0.2051,-0.2046,-0.2045,-0.2038,-0.2036,-0.2036,-0.203,-0.2026,-0.2015,-0.2015,-0.2013,-0.2013,-0.2002,-0.2003,-0.2003,-0.201,-0.2011,-0.2011,0,0,0,0,0,0,-0.2073,-0.2063,-0.206,-0.2058,-0.2053,-0.2044,-0.2044,-0.204,-0.2035,-0.2034,-0.2026,-0.2024,-0.2021,-0.2016,-0.2017,-0.2011,-0.2008,-0.2008,-0.2014,-0.2014,-0.2015,-0.2016,-0.2011,0,0,0,0,0,-0.2075,-0.2072,-0.2063,-0.2063,-0.206,-0.2052,-0.205,-0.2045,-0.2039,-0.2037,-0.2031,-0.2025,-0.202,-0.2017,-0.2012,-0.2009,-0.2006,-0.2008,-0.2009,-0.2009,-0.2009,-0.2006,-0.2006,-0.2003,-0.2003,-0.2003,0,0,-0.2079,-0.2073,-0.2072,-0.2064,-0.206,-0.2056,-0.2051,-0.2047,-0.2044,-0.2037,-0.2032,-0.2027,-0.202,-0.2016,-0.2014,-0.2012,-0.2009,-0.2009,-0.201,-0.2009,-0.2006,-0.2006,-0.2006,-0.2003,-0.2003,-0.2003,0,0,-0.2084,-0.208,-0.2079,-0.2074,-0.2067,-0.2061,-0.2061,-0.2052,-0.2049,-0.2044,-0.2038,-0.2033,-0.2025,-0.202,-0.2016,-0.2017,-0.2013,-0.2016,-0.2019,-0.2015,-0.2016,-0.2016,-0.2015,-0.2015,-0.2016,-0.2016,-0.2016,0,-0.2091,-0.2085,-0.2078,-0.2075,-0.2072,-0.2064,-0.2061,-0.2057,-0.2048,-0.2046,-0.2044,-0.2032,-0.2027,-0.2021,-0.2021,-0.2018,-0.2017,-0.2017,-0.2016,-0.2016,-0.2016,-0.2016,-0.2016,-0.2016,-0.2016,-0.2016,-0.2016,0,-0.2093,-0.2089,-0.2088,-0.208,-0.2076,-0.2074,-0.2065,-0.2062,-0.2057,-0.2052,-0.2046,-0.2039,-0.2031,-0.2029,-0.2025,-0.2022,-0.2021,-0.2018,-0.2015,-0.2017,-0.2016,-0.2016,-0.2017,-0.2016,-0.2016,-0.2016,0,0,-0.2106,-0.2092,-0.2092,-0.2087,-0.2078,-0.2075,-0.2071,-0.2063,-0.206,-0.2054,-0.205,-0.2042,-0.2038,-0.2034,-0.2029,-0.2026,-0.2026,-0.2023,-0.2022,-0.2023,-0.202,-0.2023,-0.2023,-0.2022,-0.2022,-0.2022,-0.2021,0,-0.211,-0.2103,-0.2096,-0.2091,-0.2087,-0.2078,-0.2074,-0.2068,-0.2062,-0.2056,-0.2049,-0.2044,-0.204,-0.2037,-0.2034,-0.2026,-0.2025,-0.2026,-0.2017,-0.2017,-0.2019,-0.2022,-0.2025,-0.2024,-0.202,-0.202,-0.202,0,-0.2114,-0.2108,-0.2103,-0.2092,-0.209,-0.2087,-0.2078,-0.2074,-0.2065,-0.2061,-0.2055,-0.2049,-0.2043,-0.204,-0.2031,-0.2032,-0.2027,-0.2023,-0.2023,-0.2022,-0.2019,-0.2021,-0.2024,-0.2024,-0.202,-0.202,-0.202,0,-0.2123,-0.2113,-0.2109,-0.2105,-0.2093,-0.209,-0.2085,-0.2076,-0.2072,-0.2064,-0.2061,-0.2053,-0.2048,-0.2041,-0.2032,-0.2031,-0.2024,-0.2021,-0.2019,-0.2019,-0.2018,-0.2018,-0.202,-0.2016,-0.2016,-0.2016,-0.2016,0,-0.2128,-0.2125,-0.2112,-0.2109,-0.2105,-0.2096,-0.2092,-0.2085,-0.2077,-0.2072,-0.2064,-0.2059,-0.2048,-0.2041,-0.2034,-0.2027,-0.2025,-0.2021,-0.2019,-0.2021,-0.2022,-0.2019,-0.2018,-0.2016,-0.2016,-0.2016,-0.2016,0,-0.2138,-0.2129,-0.2124,-0.2112,-0.2109,-0.2106,-0.2095,-0.2091,-0.2084,-0.2078,-0.2076,-0.2064,-0.2056,-0.2046,-0.2035,-0.203,-0.2023,-0.202,-0.2026,-0.2025,-0.2024,-0.2024,-0.2023,-0.2022,-0.2019,-0.2019,-0.2019,0,-0.2142,-0.214,-0.2127,-0.2123,-0.2118,-0.2112,-0.2107,-0.2097,-0.2092,-0.208,-0.2077,-0.2068,-0.2061,-0.2047,-0.2037,-0.2028,-0.2025,-0.2025,-0.2024,-0.2025,-0.2024,-0.2024,-0.2023,-0.2026,-0.2026,-0.2026,-0.2026,0,-0.215,-0.2145,-0.2139,-0.213,-0.2124,-0.2117,-0.2109,-0.2106,-0.2094,-0.2089,-0.208,-0.2074,-0.2061,-0.2052,-0.2041,-0.2034,-0.2028,-0.2027,-0.2026,-0.2028,-0.2031,-0.2029,-0.2027,-0.2027,-0.2027,-0.2027,-0.2027,-0.2027,-0.2156,-0.2153,-0.2143,-0.2136,-0.2129,-0.2121,-0.2116,-0.2108,-0.2101,-0.209,-0.2084,-0.2075,-0.2064,-0.2049,-0.2042,-0.2034,-0.2032,-0.2031,-0.203,-0.203,-0.203,-0.2033,-0.2032,-0.2032,-0.2032,-0.2032,-0.2032,0,-0.2163,-0.2156,-0.2149,-0.2138,-0.2131,-0.2126,-0.2116,-0.2111,-0.2103,-0.2094,-0.2086,-0.2075,-0.2065,-0.2054,-0.2043,-0.2038,-0.2035,-0.2036,-0.2036,-0.2034,-0.2033,-0.2035,-0.2039,-0.2039,-0.2039,-0.2039,-0.2039,-0.2039,-0.2166,-0.2159,-0.2153,-0.2142,-0.2135,-0.2126,-0.2121,-0.2113,-0.2106,-0.2094,-0.2086,-0.2078,-0.2067,-0.2055,-0.2046,-0.2042,-0.2038,-0.204,-0.2036,-0.2035,-0.2035,-0.2034,-0.2035,-0.2039,-0.2039,-0.2037,-0.2037,-0.2037]},{"header":{"parameterUnit":"m.s-1","parameterCategory":1,"la1":30.2991,"la2":30.254,"lo1":-89.0895,"lo2":-89.0444,"dy":0.0017,"dx":0.0017,"nx":28,"ny":28,"refTime":"2025-08-22T03:00:00:Z","depth":0,"parameterNumber":3,"parameterNumberName":"V-component_of_WINDS"},"data":[0,0,0,0,0,0,0,0,0,0,0,0,0,0,0,0,0,0,0,0,0,0,0,0,0,0,0,0,0,0,0,0,0,0,0,0,0,0,0,0,0,0,0,0,0,0,0,0,0,0,0,0,0,0,0,0,0,0,-0.815,-0.8151,0,-0.8192,-0.8193,-0.8193,-0.8219,-0.8219,-0.8219,-0.8219,-0.826,-0.8261,-0.8262,0,0,0,0,0,0,0,0,0,0,0,0,0,-0.809,-0.8091,-0.815,-0.8151,-0.8151,-0.8192,-0.8193,-0.8193,-0.8219,-0.8219,-0.8219,-0.8219,-0.826,-0.8261,-0.8262,0,0,0,0,0,0,0,0,0,0,0,0,0,-0.8122,-0.8091,-0.815,-0.8169,-0.8171,-0.8192,-0.8193,-0.8193,-0.8219,-0.8219,-0.8219,-0.8219,-0.8259,-0.8261,-0.8262,-0.8267,0,0,-0.8266,-0.8267,0,0,0,0,0,0,0,0,-0.812,-0.8124,-0.8166,-0.8168,-0.817,-0.8201,-0.8186,-0.8218,-0.8219,-0.8201,-0.8219,-0.8219,-0.824,-0.8243,-0.825,-0.8269,-0.827,-0.8267,-0.8267,-0.8268,-0.8268,0,0,0,0,0,0,0,-0.8118,-0.8123,-0.8167,-0.8166,-0.8169,-0.8174,-0.8179,-0.8192,-0.8218,-0.8202,-0.8204,-0.8209,-0.8241,-0.8249,-0.8251,-0.8271,-0.8267,-0.8268,-0.8269,-0.8269,-0.8294,-0.8294,0,0,0,0,0,0,-0.8113,-0.8121,-0.8166,-0.8168,-0.8145,-0.8175,-0.8181,-0.8191,-0.8218,-0.8223,-0.8209,-0.821,-0.8246,-0.825,-0.8253,-0.826,-0.8268,-0.8269,-0.827,-0.8294,-0.8294,-0.8294,0,0,0,0,0,0,-0.8112,-0.8117,-0.8164,-0.8145,-0.8151,-0.8176,-0.8187,-0.8191,-0.8199,-0.8223,-0.8228,-0.8212,-0.8247,-0.8251,-0.8263,-0.8261,-0.827,-0.8271,-0.8294,-0.8294,-0.8294,-0.8273,0,0,0,0,0,0,-0.811,-0.8116,-0.8119,-0.8145,-0.8152,-0.8174,-0.8187,-0.8192,-0.8202,-0.8204,-0.8228,-0.8232,-0.8247,-0.8261,-0.8264,-0.8263,-0.8272,-0.8295,-0.8294,-0.8294,-0.8274,-0.8272,-0.8271,0,0,0,0,0,-0.8108,-0.8112,-0.8119,-0.8125,-0.8157,-0.8174,-0.8178,-0.8196,-0.8201,-0.8204,-0.8219,-0.8231,-0.8261,-0.8262,-0.8266,-0.8266,-0.8295,-0.8294,-0.8294,-0.8275,-0.8273,-0.8271,0,0,0,0,0,0,-0.8085,-0.8115,-0.8124,-0.8137,-0.8153,-0.8178,-0.8182,-0.8193,-0.8208,-0.8209,-0.823,-0.8235,-0.8245,-0.8256,-0.8257,-0.8271,-0.8279,-0.8279,-0.8263,-0.8261,-0.8259,-0.8256,-0.8274,0,0,0,0,0,-0.8081,-0.8094,-0.8119,-0.8128,-0.8135,-0.8157,-0.8166,-0.8178,-0.8195,-0.8202,-0.8218,-0.8234,-0.8246,-0.8254,-0.8268,-0.8276,-0.8281,-0.8277,-0.8276,-0.8274,-0.8274,-0.8278,-0.8276,-0.8292,-0.8292,-0.8292,0,0,-0.8074,-0.8092,-0.8099,-0.8124,-0.8138,-0.8149,-0.8163,-0.8175,-0.8183,-0.8203,-0.8216,-0.8228,-0.8247,-0.8256,-0.8262,-0.8266,-0.8271,-0.8273,-0.8272,-0.8273,-0.8277,-0.8276,-0.8274,-0.8292,-0.8292,-0.8292,0,0,-0.8067,-0.8082,-0.809,-0.8104,-0.8124,-0.8139,-0.814,-0.8164,-0.8173,-0.8186,-0.8201,-0.8211,-0.8233,-0.8245,-0.8254,-0.825,-0.826,-0.8253,-0.8244,-0.8247,-0.8246,-0.8245,-0.8243,-0.8242,-0.8253,-0.8253,-0.8253,0,-0.8055,-0.8074,-0.8093,-0.8104,-0.8114,-0.8133,-0.814,-0.8152,-0.8176,-0.8182,-0.8187,-0.8214,-0.8228,-0.824,-0.8239,-0.8246,-0.8248,-0.8251,-0.8245,-0.8244,-0.8243,-0.8241,-0.824,-0.8252,-0.8252,-0.8252,-0.8252,0,-0.8058,-0.807,-0.8074,-0.8097,-0.8107,-0.8116,-0.8136,-0.8144,-0.8155,-0.8168,-0.818,-0.8197,-0.8213,-0.8217,-0.8228,-0.8231,-0.8233,-0.8241,-0.825,-0.8241,-0.8239,-0.8238,-0.825,-0.8251,-0.8251,-0.8251,0,0,-0.8038,-0.807,-0.8071,-0.8081,-0.8105,-0.8114,-0.8123,-0.814,-0.8146,-0.8161,-0.8168,-0.8186,-0.8193,-0.8203,-0.8216,-0.8219,-0.8213,-0.8226,-0.8227,-0.8223,-0.8215,-0.8208,-0.8207,-0.822,-0.822,-0.822,-0.8213,0,-0.8034,-0.8052,-0.8069,-0.8081,-0.8092,-0.8109,-0.8117,-0.8132,-0.8144,-0.8154,-0.8168,-0.8179,-0.8189,-0.8195,-0.8199,-0.8213,-0.8211,-0.8213,-0.8226,-0.8226,-0.8221,-0.8207,-0.82,-0.8193,-0.8213,-0.8213,-0.8213,0,-0.8032,-0.8046,-0.8059,-0.808,-0.8085,-0.8092,-0.8108,-0.8118,-0.8134,-0.8142,-0.8153,-0.8166,-0.8175,-0.8182,-0.8195,-0.8196,-0.8202,-0.8209,-0.8209,-0.8211,-0.8219,-0.8207,-0.8192,-0.819,-0.8212,-0.8212,-0.8212,0,-0.8016,-0.8038,-0.8048,-0.8056,-0.8081,-0.8085,-0.8096,-0.8112,-0.8121,-0.8134,-0.8139,-0.8153,-0.8161,-0.817,-0.8186,-0.819,-0.8196,-0.8205,-0.8203,-0.8202,-0.8203,-0.8203,-0.8188,-0.8208,-0.8208,-0.8208,-0.8208,0,-0.8009,-0.8016,-0.8041,-0.8048,-0.8055,-0.8074,-0.8081,-0.8093,-0.8107,-0.8115,-0.8131,-0.8138,-0.8158,-0.8167,-0.8179,-0.8187,-0.819,-0.8197,-0.82,-0.8195,-0.8194,-0.8199,-0.82,-0.8208,-0.8208,-0.8208,-0.8208,0,-0.7993,-0.801,-0.8022,-0.8044,-0.805,-0.8055,-0.8073,-0.8079,-0.8092,-0.8102,-0.8105,-0.8124,-0.8136,-0.8152,-0.8169,-0.8177,-0.8182,-0.8187,-0.8177,-0.8179,-0.8175,-0.8175,-0.8162,-0.8161,-0.8182,-0.8182,-0.8181,0,-0.7987,-0.7993,-0.8016,-0.8022,-0.8032,-0.8043,-0.8051,-0.8069,-0.8077,-0.8095,-0.8098,-0.8111,-0.8122,-0.8139,-0.8154,-0.8166,-0.8171,-0.8166,-0.8173,-0.8168,-0.817,-0.8169,-0.8169,-0.8164,-0.8164,-0.8163,-0.8163,0,-0.7976,-0.7984,-0.7995,-0.8009,-0.8019,-0.8031,-0.8043,-0.8048,-0.8068,-0.8076,-0.8088,-0.8096,-0.8112,-0.8124,-0.8138,-0.8148,-0.8158,-0.8161,-0.8161,-0.8156,-0.8149,-0.8152,-0.8171,-0.8161,-0.8161,-0.8161,-0.8162,-0.8162,-0.7964,-0.797,-0.7986,-0.7998,-0.8009,-0.802,-0.8027,-0.804,-0.805,-0.8065,-0.8074,-0.8085,-0.81,-0.8119,-0.8128,-0.8136,-0.8141,-0.8141,-0.8141,-0.8141,-0.8139,-0.8148,-0.8139,-0.8139,-0.8139,-0.8139,-0.8139,0,-0.7953,-0.7964,-0.7975,-0.7992,-0.8001,-0.801,-0.8024,-0.8031,-0.804,-0.8053,-0.8063,-0.8076,-0.8087,-0.8102,-0.8114,-0.8117,-0.8122,-0.812,-0.812,-0.8121,-0.8134,-0.8133,-0.8115,-0.8115,-0.8115,-0.8115,-0.8115,-0.8115,-0.7948,-0.7958,-0.7967,-0.7981,-0.7992,-0.8003,-0.801,-0.8019,-0.8029,-0.8043,-0.8052,-0.8062,-0.8075,-0.8088,-0.8098,-0.8102,-0.8106,-0.8101,-0.8107,-0.8118,-0.8121,-0.8123,-0.8121,-0.8102,-0.8102,-0.8093,-0.8093,-0.8093]}]]